Time,TemperatureF,DewpointF,PressureIn,WindDirection,WindDirectionDegrees,WindSpeedMPH,WindSpeedGustMPH,Humidity,HourlyPrecipIn,Conditions,Clouds,dailyrainin,SoftwareType,DateUTC
2013-10-06 00:13:00,54.0,-99.9,-100.00,SW,222,5.0,9.0,-999,0.00,,,-99.99,,2013-10-06 05:13:00,
2013-10-06 00:23:00,54.0,-99.9,-100.00,SW,222,5.0,9.0,-999,0.00,,,-99.99,,2013-10-06 05:23:00,
2013-10-06 00:43:00,53.0,-99.9,-100.00,SSW,211,3.0,5.0,-999,0.00,,,0.10,,2013-10-06 05:43:00,
2013-10-06 00:52:00,53.0,-99.9,-100.00,SSW,211,3.0,5.0,-999,0.00,,,0.10,,2013-10-06 05:52:00,
2013-10-06 01:13:00,50.0,-99.9,-100.00,South,175,1.0,1.0,-999,0.00,,,0.10,,2013-10-06 06:13:00,
2013-10-06 01:22:00,50.0,-99.9,-100.00,South,175,1.0,1.0,-999,0.00,,,0.10,,2013-10-06 06:22:00,
2013-10-06 01:42:00,49.0,-99.9,-100.00,South,176,1.0,2.0,-999,0.00,,,0.10,,2013-10-06 06:42:00,
2013-10-06 01:52:00,49.0,-99.9,-100.00,South,176,1.0,2.0,-999,0.00,,,0.10,,2013-10-06 06:52:00,
2013-10-06 02:11:00,49.0,-99.9,-100.00,SSW,197,2.0,5.0,-999,0.00,,,-99.99,,2013-10-06 07:11:00,
2013-10-06 02:22:00,49.0,-99.9,-100.00,SSW,197,2.0,5.0,-999,0.00,,,-99.99,,2013-10-06 07:22:00,
2013-10-06 02:43:00,52.0,-99.9,-100.00,SW,230,8.0,14.0,-999,0.00,,,0.10,,2013-10-06 07:43:00,
2013-10-06 02:52:00,52.0,-99.9,-100.00,SW,230,8.0,14.0,-999,0.00,,,0.10,,2013-10-06 07:52:00,
2013-10-06 03:12:00,51.0,-99.9,-100.00,SW,229,5.0,9.0,-999,0.00,,,0.10,,2013-10-06 08:12:00,
2013-10-06 03:22:00,51.0,-99.9,-100.00,SW,229,5.0,9.0,-999,0.00,,,0.10,,2013-10-06 08:22:00,
2013-10-06 03:42:00,50.0,-99.9,-100.00,SW,233,5.0,7.0,-999,0.00,,,0.10,,2013-10-06 08:42:00,
2013-10-06 03:53:00,50.0,-99.9,-100.00,SW,233,5.0,7.0,-999,0.00,,,0.10,,2013-10-06 08:53:00,
2013-10-06 04:11:00,50.0,-99.9,-100.00,SW,218,4.0,6.0,-999,0.00,,,0.10,,2013-10-06 09:11:00,
2013-10-06 04:22:00,50.0,-99.9,-100.00,SW,218,4.0,6.0,-999,0.00,,,0.10,,2013-10-06 09:22:00,
2013-10-06 04:43:00,49.0,-99.9,-100.00,SW,226,4.0,6.0,-999,0.00,,,0.10,,2013-10-06 09:43:00,
2013-10-06 05:13:00,50.0,-99.9,-100.00,WSW,239,7.0,8.0,-999,0.00,,,0.10,,2013-10-06 10:13:00,
2013-10-06 05:23:00,50.0,-99.9,-100.00,WSW,239,7.0,8.0,-999,0.00,,,0.10,,2013-10-06 10:23:00,
2013-10-06 05:43:00,48.0,-99.9,-100.00,SW,220,4.0,6.0,-999,0.00,,,0.10,,2013-10-06 10:43:00,
2013-10-06 05:53:00,48.0,-99.9,-100.00,SW,220,4.0,6.0,-999,0.00,,,0.10,,2013-10-06 10:53:00,
2013-10-06 06:12:00,47.0,-99.9,-100.00,SSW,213,5.0,8.0,-999,0.00,,,0.10,,2013-10-06 11:12:00,
2013-10-06 06:22:00,47.0,-99.9,-100.00,SSW,213,5.0,8.0,-999,0.00,,,0.10,,2013-10-06 11:22:00,
2013-10-06 06:42:00,47.0,-99.9,-100.00,SSW,212,4.0,5.0,-999,0.00,,,0.10,,2013-10-06 11:42:00,
2013-10-06 06:52:00,47.0,-99.9,-100.00,SSW,212,4.0,5.0,-999,0.00,,,0.10,,2013-10-06 11:52:00,
2013-10-06 07:12:00,46.0,-99.9,-100.00,SSW,203,3.0,5.0,-999,0.00,,,0.10,,2013-10-06 12:12:00,
2013-10-06 07:22:00,46.0,-99.9,-100.00,SSW,203,3.0,5.0,-999,0.00,,,0.10,,2013-10-06 12:22:00,
2013-10-06 07:42:00,47.0,-99.9,-100.00,SW,220,8.0,13.0,-999,0.00,,,0.10,,2013-10-06 12:42:00,
2013-10-06 07:52:00,47.0,-99.9,-100.00,SW,220,8.0,13.0,-999,0.00,,,0.10,,2013-10-06 12:52:00,
2013-10-06 08:11:00,46.0,-99.9,-100.00,WSW,245,9.0,12.0,-999,0.00,,,0.10,,2013-10-06 13:11:00,
2013-10-06 08:21:00,46.0,-99.9,-100.00,WSW,245,9.0,12.0,-999,0.00,,,0.10,,2013-10-06 13:21:00,
2013-10-06 08:42:00,47.0,-99.9,-100.00,SW,234,8.0,13.0,-999,0.00,,,0.10,,2013-10-06 13:42:00,
2013-10-06 08:52:00,47.0,-99.9,-100.00,SW,234,8.0,13.0,-999,0.00,,,0.10,,2013-10-06 13:52:00,
2013-10-06 09:11:00,48.0,-99.9,-100.00,SW,233,8.0,12.0,-999,0.00,,,0.10,,2013-10-06 14:11:00,
2013-10-06 09:22:00,48.0,-99.9,-100.00,SW,233,8.0,12.0,-999,0.00,,,0.10,,2013-10-06 14:22:00,
2013-10-06 09:42:00,48.0,-99.9,-100.00,SW,231,9.0,10.0,-999,0.00,,,0.10,,2013-10-06 14:42:00,
2013-10-06 09:52:00,48.0,-99.9,-100.00,SW,231,9.0,10.0,-999,0.00,,,0.10,,2013-10-06 14:52:00,
2013-10-06 10:11:00,48.0,-99.9,-100.00,WSW,242,8.0,11.0,-999,0.00,,,0.10,,2013-10-06 15:11:00,
2013-10-06 10:22:00,48.0,-99.9,-100.00,WSW,242,8.0,11.0,-999,0.00,,,0.10,,2013-10-06 15:22:00,
2013-10-06 10:44:00,49.0,-99.9,-100.00,SW,224,7.0,10.0,-999,0.00,,,0.10,,2013-10-06 15:44:00,
2013-10-06 10:54:00,49.0,-99.9,-100.00,SW,224,7.0,10.0,-999,0.00,,,0.10,,2013-10-06 15:54:00,
2013-10-06 11:12:00,49.0,-99.9,-100.00,SW,230,7.0,10.0,-999,0.00,,,0.09,,2013-10-06 16:12:00,
2013-10-06 11:23:00,49.0,-99.9,-100.00,SW,230,7.0,10.0,-999,0.00,,,0.09,,2013-10-06 16:23:00,
2013-10-06 11:43:00,50.0,-99.9,-100.00,WSW,238,8.0,10.0,-999,0.00,,,0.08,,2013-10-06 16:43:00,
2013-10-06 11:53:00,50.0,-99.9,-100.00,WSW,238,8.0,10.0,-999,0.00,,,0.08,,2013-10-06 16:53:00,
2013-10-06 12:12:00,51.0,-99.9,-100.00,WSW,243,10.0,15.0,-999,0.00,,,0.05,,2013-10-06 17:12:00,
2013-10-06 12:22:00,51.0,-99.9,-100.00,WSW,243,10.0,15.0,-999,0.00,,,0.05,,2013-10-06 17:22:00,
2013-10-06 12:43:00,50.0,-99.9,-100.00,SW,222,9.0,12.0,-999,0.00,,,0.05,,2013-10-06 17:43:00,
2013-10-06 12:53:00,50.0,-99.9,-100.00,SW,222,9.0,12.0,-999,0.00,,,0.05,,2013-10-06 17:53:00,
2013-10-06 13:12:00,52.0,-99.9,-100.00,SW,235,7.0,11.0,-999,0.00,,,0.05,,2013-10-06 18:12:00,
2013-10-06 13:22:00,52.0,-99.9,-100.00,SW,235,7.0,11.0,-999,0.00,,,0.05,,2013-10-06 18:22:00,
2013-10-06 13:43:00,53.0,-99.9,-100.00,WSW,252,9.0,13.0,-999,0.00,,,0.05,,2013-10-06 18:43:00,
2013-10-06 13:52:00,53.0,-99.9,-100.00,WSW,252,9.0,13.0,-999,0.00,,,0.05,,2013-10-06 18:52:00,
2013-10-06 14:12:00,51.0,-99.9,-100.00,SW,234,13.0,17.0,-999,0.00,,,0.05,,2013-10-06 19:12:00,
2013-10-06 14:23:00,51.0,-99.9,-100.00,SW,234,13.0,17.0,-999,0.00,,,0.05,,2013-10-06 19:23:00,
2013-10-06 14:42:00,50.0,-99.9,-100.00,WSW,245,14.0,18.0,-999,0.00,,,0.05,,2013-10-06 19:42:00,
2013-10-06 14:53:00,50.0,-99.9,-100.00,WSW,245,14.0,18.0,-999,0.00,,,0.05,,2013-10-06 19:53:00,
2013-10-06 15:11:00,51.0,-99.9,-100.00,West,263,12.0,17.0,-999,0.00,,,0.05,,2013-10-06 20:11:00,
2013-10-06 15:22:00,51.0,-99.9,-100.00,West,263,12.0,17.0,-999,0.00,,,0.05,,2013-10-06 20:22:00,
2013-10-06 15:42:00,54.0,-99.9,-100.00,WSW,245,8.0,19.0,-999,0.01,,,0.03,,2013-10-06 20:42:00,
2013-10-06 16:12:00,53.0,-99.9,-100.00,WSW,254,9.0,17.0,-999,0.01,,,0.01,,2013-10-06 21:12:00,
2013-10-06 16:22:00,53.0,-99.9,-100.00,WSW,254,9.0,17.0,-999,0.01,,,0.01,,2013-10-06 21:22:00,
2013-10-06 16:45:00,53.0,-99.9,-100.00,West,270,6.0,15.0,-999,0.00,,,0.01,,2013-10-06 21:45:00,
2013-10-06 16:55:00,53.0,-99.9,-100.00,West,270,6.0,15.0,-999,0.00,,,0.01,,2013-10-06 21:55:00,
2013-10-06 17:13:00,52.0,-99.9,-100.00,West,266,6.0,14.0,-999,0.00,,,0.01,,2013-10-06 22:13:00,
2013-10-06 17:24:00,52.0,-99.9,-100.00,West,266,6.0,14.0,-999,0.00,,,0.01,,2013-10-06 22:24:00,
2013-10-06 17:43:00,51.0,-99.9,-100.00,West,279,4.0,8.0,-999,0.00,,,0.01,,2013-10-06 22:43:00,
2013-10-06 18:12:00,51.0,-99.9,-100.00,WSW,251,5.0,14.0,-999,0.00,,,0.01,,2013-10-06 23:12:00,
2013-10-06 18:22:00,51.0,-99.9,-100.00,WSW,251,5.0,14.0,-999,0.00,,,0.01,,2013-10-06 23:22:00,
2013-10-06 18:42:00,50.0,-99.9,-100.00,WSW,245,8.0,10.0,-999,0.00,,,0.01,,2013-10-06 23:42:00,
2013-10-06 18:53:00,50.0,-99.9,-100.00,WSW,245,8.0,10.0,-999,0.00,,,0.01,,2013-10-06 23:53:00,
2013-10-06 19:12:00,50.0,-99.9,-100.00,SW,215,4.0,7.0,-999,0.00,,,0.01,,2013-10-07 00:12:00,
2013-10-06 19:22:00,50.0,-99.9,-100.00,SW,215,4.0,7.0,-999,0.00,,,0.01,,2013-10-07 00:22:00,
2013-10-06 19:42:00,52.0,-99.9,-100.00,SW,236,10.0,17.0,-999,0.00,,,0.01,,2013-10-07 00:42:00,
2013-10-06 20:12:00,51.0,-99.9,-100.00,WSW,240,10.0,13.0,-999,0.00,,,0.01,,2013-10-07 01:12:00,
2013-10-06 20:22:00,51.0,-99.9,-100.00,WSW,240,10.0,13.0,-999,0.00,,,0.01,,2013-10-07 01:22:00,
2013-10-06 20:42:00,52.0,-99.9,-100.00,WSW,239,11.0,15.0,-999,0.00,,,0.01,,2013-10-07 01:42:00,
2013-10-06 20:53:00,52.0,-99.9,-100.00,WSW,239,11.0,15.0,-999,0.00,,,0.01,,2013-10-07 01:53:00,
2013-10-06 21:12:00,52.0,-99.9,-100.00,WSW,242,8.0,12.0,-999,0.01,,,0.02,,2013-10-07 02:12:00,
2013-10-06 21:22:00,52.0,-99.9,-100.00,WSW,242,8.0,12.0,-999,0.01,,,0.02,,2013-10-07 02:22:00,
2013-10-06 21:43:00,52.0,-99.9,-100.00,WSW,246,8.0,12.0,-999,0.01,,,0.02,,2013-10-07 02:43:00,
2013-10-06 21:53:00,52.0,-99.9,-100.00,WSW,246,8.0,12.0,-999,0.01,,,0.02,,2013-10-07 02:53:00,
2013-10-06 22:12:00,53.0,-99.9,-100.00,WSW,258,4.0,11.0,-999,0.00,,,0.02,,2013-10-07 03:12:00,
2013-10-06 22:22:00,53.0,-99.9,-100.00,WSW,258,4.0,11.0,-999,0.00,,,0.02,,2013-10-07 03:22:00,
2013-10-06 22:45:00,50.0,-99.9,-100.00,NNW,327,11.0,15.0,-999,0.00,,,0.02,,2013-10-07 03:45:00,
2013-10-06 22:54:00,50.0,-99.9,-100.00,NNW,327,11.0,15.0,-999,0.00,,,0.02,,2013-10-07 03:54:00,
2013-10-06 23:14:00,50.0,-99.9,-100.00,NW,312,7.0,12.0,-999,0.00,,,0.02,,2013-10-07 04:14:00,
2013-10-06 23:25:00,50.0,-99.9,-100.00,NW,312,7.0,12.0,-999,0.00,,,0.02,,2013-10-07 04:25:00,
2013-10-06 23:44:00,50.0,-99.9,-100.00,NNW,332,6.0,10.0,-999,0.00,,,0.02,,2013-10-07 04:44:00,
2013-10-06 23:53:00,50.0,-99.9,-100.00,NNW,332,6.0,10.0,-999,0.00,,,0.02,,2013-10-07 04:53:00,